Back to catalog

SL-8 R/B

AliveLEO
NORAD 12644·ROCKET BODY·🇷🇺 Russia

Launched Aug 6, 1981 from Plesetsk Cosmodrome

Loading…

Next Passes (next 24 hours)

TLE

FreshSource: Space-Track

Epoch: Sep 14, 2026, 07:41 UTC

1 12644U 81074J   26257.32064039 -.00000085  00000-0 -60662-3 0  9994
2 12644  74.0293 101.5081 0130798 356.2115 176.2809 12.26027005 18648

Track SL-8 R/B in real time with AllMySat

Download on the App Store